This is the latest recevied weather packets stored in our database for station/object VA2RBQ-7. If no packets are shown the sender has not sent any weather packets the latest 10 day(s).
| Time | Temp. | Humidity | Pressure | Rain* | Wind** | Luminosity | Snow |
|---|---|---|---|---|---|---|---|
| 1788554876 | 11.11° C | 70% | 1014.1 hPa | 1.27 mm | - | - | - |
| 1788554573 | 11.67° C | 70% | 1014 hPa | 1.27 mm | - | - | - |
| 1788554271 | 11.67° C | 71% | 1014 hPa | 1.27 mm | - | - | - |
| 1788553968 | 11.67° C | 71% | 1014.1 hPa | 1.02 mm | - | - | - |
| 1788553665 | 11.67° C | 71% | 1014.2 hPa | 1.02 mm | - | - | - |
| 1788553363 | 11.67° C | 71% | 1014.1 hPa | 1.02 mm | - | - | - |
| 1788553063 | 11.67° C | 71% | 1014 hPa | 0.76 mm | - | - | - |
| 1788552758 | 11.67° C | 71% | 1014.2 hPa | 0.76 mm | - | - | - |
| 1788552455 | 12.22° C | 71% | 1014.1 hPa | 0.51 mm | - | - | - |
| 1788552152 | 12.22° C | 71% | 1014.1 hPa | 0.51 mm | - | - | - |
| 1788551850 | 12.22° C | 71% | 1014 hPa | 0.25 mm | - | - | - |
| 1788551547 | 12.22° C | 71% | 1014.1 hPa | 0.25 mm | - | - | - |
| 1788551245 | 12.22° C | 71% | 1014 hPa | 0.25 mm | - | - | - |
| 1788550942 | 13.33° C | 71% | 1014 hPa | 0.25 mm | - | - | - |
| 1788550639 | 13.33° C | 71% | 1014 hPa | 0.25 mm | - | - | - |
| 1788550337 | 12.78° C | 72% | 1014 hPa | 0.25 mm | - | - | - |
| 1788550034 | 12.78° C | 72% | 1013.9 hPa | 0.25 mm | - | - | - |
| 1788549732 | 12.78° C | 72% | 1013.9 hPa | 0.25 mm | - | - | - |
| 1788549429 | 12.78° C | 72% | 1013.9 hPa | 0.25 mm | - | - | - |
| 1788549126 | 12.78° C | 72% | 1013.7 hPa | 0.25 mm | - | - | - |
| 1788548824 | 12.22° C | 72% | 1013.8 hPa | 0.25 mm | - | - | - |
| 1788548521 | 12.78° C | 72% | 1013.8 hPa | 0.25 mm | - | - | - |
| 1788548219 | 12.78° C | 72% | 1013.8 hPa | 0 mm | - | - | - |
| 1788547916 | 13.33° C | 72% | 1013.8 hPa | 0 mm | - | - | - |
| 1788547613 | 13.89° C | 73% | 1013.7 hPa | 0 mm | - | - | - |
* Rain since midnight (hover to see other rain measurements)
** Current wind speed in m/s (hover to see current wind gust speed)